CSS (TIANHE)

Last updated on Mon Sep 21 2026 00:02:05 GMT+0000 (Coordinated Universal Time)

1 48274U 21035A 26263.60227583 .00014670 00000+0 17915-3 0 9991 2 48274 41.4678 102.6603 0002546 294.4232 65.6341 15.60135710308069
UTC large
Height (km)
Speed (km/s)
/
Latitude / Longitude
Inclination (degrees)
Orbital Period (minutes)
Azimuth
Elevation
Range (km)
Doppler Factor

Next 0 passes for location: London (51.5072 / 0.1276)

No passes found over London.
CSS (TIANHE)